Weather History for Delaware, OH

Change the Weather History Date:

Friday, November 9, 2012

  Actual Average Record
Temperature  
Mean Temperature 40 °F -  
Max Temperature 55 °F 52 °F 72 °F (1975)
Min Temperature 26 °F 32 °F 9 °F (1991)
Degree Days  
Heating Degree Days 24    
Moisture  
Dew Point 33 °F    
Average Humidity 74    
Maximum Humidity 100    
Minimum Humidity 47    
Precipitation  
Precipitation 0.00 in - - ()
Sea Level Pressure  
Sea Level Pressure 30.18 in    
Wind  
Wind Speed 3 mph (South)    
Max Wind Speed 12 mph    
Max Gust Speed 16 mph    
Visibility 7 miles    
Events Fog , Rain , Thunderstorm    
Averages and records for this station are not official NWS values.
T = Trace of Precipitation, MM = Missing Value Source: NWS Daily Summary

Daily Weather History Graph

Daily Weather History Graph

Search for Another Location

Airport:

Trip Planner

Search our weather history database for the weather conditions in past years. The results will help you decide how hot, cold, wet, or windy it might be!

Date:

Astronomy

Nov. 09, 2012 Rise Set
Actual Time 7:11 AM EST 5:20 PM EST
Civil Twilight 6:43 AM EST 5:49 PM EST
Nautical Twilight 6:10 AM EST 6:21 PM EST
Astronomical Twilight 5:38 AM EST 6:53 PM EST
Moon 2:08 AM EST (11/9) 2:33 PM EST (11/9)
Length of Visible Light 11h 06m
Length of Day
10h 08m
Waning Crescent, 23% of the Moon is Illuminated
Nov 9
Waning Crescent
Nov 13
New
Nov 20
First Quarter
Nov 28
Full
Dec 6
Last Quarter

Hourly Weather History & Observations

Time (EST) Temp. Windchill Dew Point Humidity Pressure Visibility Wind Dir Wind Speed Gust Speed Precip Events Conditions
12:17 AM 30.2 °F - 28.4 °F 93% 30.17 in 4.0 mi Calm Calm - N/A   Clear
12:37 AM 30.2 °F - 28.4 °F 93% 30.17 in 4.0 mi Calm Calm - N/A   Clear
12:58 AM 30.2 °F - 28.4 °F 93% 30.17 in 4.0 mi Calm Calm - N/A   Clear
1:17 AM 28.4 °F - 28.4 °F 100% 30.17 in 4.0 mi Calm Calm - N/A   Clear
1:37 AM 30.2 °F - 28.4 °F 93% 30.17 in 4.0 mi Calm Calm - N/A   Clear
1:58 AM 28.4 °F - 28.4 °F 100% 30.17 in 2.5 mi Calm Calm - N/A   Clear
2:17 AM 28.4 °F - 28.4 °F 100% 30.18 in 2.5 mi Calm Calm - N/A   Clear
2:37 AM 26.6 °F - 26.6 °F 100% 30.18 in 2.5 mi Calm Calm - N/A   Clear
2:58 AM 28.4 °F - 28.4 °F 100% 30.18 in 2.5 mi Calm Calm - N/A   Clear
3:17 AM 28.4 °F - 28.4 °F 100% 30.18 in 5.0 mi Calm Calm - N/A   Clear
3:37 AM 28.4 °F - 28.4 °F 100% 30.18 in 4.0 mi Calm Calm - N/A   Clear
3:58 AM 28.4 °F - 28.4 °F 100% 30.18 in 2.0 mi Calm Calm - N/A   Clear
4:17 AM 28.4 °F - 26.6 °F 93% 30.20 in 2.0 mi Calm Calm - N/A   Clear
4:37 AM 28.4 °F - 26.6 °F 93% 30.20 in 2.5 mi Calm Calm - N/A   Clear
4:58 AM 26.6 °F - 26.6 °F 100% 30.21 in 1.0 mi Calm Calm - N/A   Mist
5:17 AM 26.6 °F - 24.8 °F 93% 30.21 in 1.8 mi Calm Calm - N/A   Mist
5:38 AM 26.6 °F - 26.6 °F 100% 30.22 in 2.0 mi Calm Calm - N/A   Clear
5:58 AM 28.4 °F - 26.6 °F 93% 30.22 in 1.8 mi Calm Calm - N/A   Mist
6:17 AM 28.4 °F - 28.4 °F 100% 30.22 in 2.0 mi Calm Calm - N/A   Clear
6:58 AM 28.4 °F - 26.6 °F 93% 30.23 in 0.5 mi Calm Calm - N/A Fog Light Freezing Fog
7:17 AM 28.4 °F - 26.6 °F 93% 30.23 in 0.5 mi Calm Calm - N/A Fog Light Freezing Fog
7:38 AM 28.4 °F - 26.6 °F 93% 30.24 in 0.2 mi Calm Calm - N/A Fog Light Freezing Fog
7:58 AM 28.4 °F - 26.6 °F 93% 30.24 in 1.0 mi Calm Calm - N/A   Mist
8:17 AM 30.2 °F - 30.2 °F 100% 30.24 in 2.5 mi Calm Calm - N/A   Clear
8:38 AM 32.0 °F - 32.0 °F 100% 30.25 in 3.0 mi Calm Calm - N/A   Clear
8:58 AM 33.8 °F - 32.0 °F 93% 30.25 in 4.0 mi Calm Calm - N/A   Clear
9:17 AM 35.6 °F 32.8 °F 33.8 °F 93% 30.25 in 4.0 mi South 3.5 mph - N/A   Clear
9:58 AM 41.0 °F 36.4 °F 33.8 °F 76% 30.24 in 5.0 mi SSW 6.9 mph - N/A   Haze
10:17 AM 42.8 °F 40.1 °F 35.6 °F 76% 30.24 in 5.0 mi South 4.6 mph - N/A   Haze
10:38 AM 44.6 °F 40.7 °F 35.6 °F 71% 30.24 in 5.0 mi SSW 6.9 mph - N/A   Haze
10:58 AM 46.4 °F 43.5 °F 35.6 °F 66% 30.24 in 5.0 mi South 5.8 mph - N/A   Haze
11:17 AM 48.2 °F - 35.6 °F 62% 30.24 in 7.0 mi SW 8.1 mph - N/A   Clear
11:38 AM 50.0 °F - 37.4 °F 62% 30.23 in 7.0 mi SSW 9.2 mph - N/A   Clear
11:58 AM 50.0 °F - 37.4 °F 62% 30.22 in 7.0 mi SW 9.2 mph - N/A   Clear
12:17 PM 51.8 °F - 37.4 °F 58% 30.20 in 10.0 mi SW 6.9 mph - N/A   Clear
12:38 PM 51.8 °F - 37.4 °F 58% 30.19 in 10.0 mi SSW 10.4 mph - N/A   Clear
12:57 PM 53.6 °F - 37.4 °F 54% 30.19 in 10.0 mi SW 8.1 mph - N/A   Clear
1:17 PM 53.6 °F - 37.4 °F 54% 30.17 in 10.0 mi South 8.1 mph - N/A   Clear
1:38 PM 53.6 °F - 37.4 °F 54% 30.16 in 10.0 mi South 10.4 mph - N/A   Clear
1:57 PM 53.6 °F - 35.6 °F 51% 30.16 in 10.0 mi South 9.2 mph - N/A   Clear
2:17 PM 55.4 °F - 35.6 °F 47% 30.16 in 10.0 mi SSW 9.2 mph 16.1 mph N/A   Clear
2:38 PM 55.4 °F - 35.6 °F 47% 30.15 in 10.0 mi South 11.5 mph - N/A   Clear
2:57 PM 55.4 °F - 35.6 °F 47% 30.15 in 10.0 mi South 10.4 mph - N/A   Clear
3:17 PM 55.4 °F - 35.6 °F 47% 30.15 in 10.0 mi South 9.2 mph - N/A   Clear
3:38 PM 55.4 °F - 35.6 °F 47% 30.15 in 10.0 mi South 9.2 mph - N/A   Clear
3:57 PM 55.4 °F - 35.6 °F 47% 30.15 in 10.0 mi South 9.2 mph - N/A   Clear
4:18 PM 55.4 °F - 35.6 °F 47% 30.15 in 10.0 mi South 9.2 mph - N/A   Clear
4:38 PM 53.6 °F - 35.6 °F 51% 30.15 in 10.0 mi South 6.9 mph - N/A   Clear
4:57 PM 51.8 °F - 35.6 °F 54% 30.14 in 10.0 mi South 6.9 mph - N/A   Clear
5:18 PM 50.0 °F - 35.6 °F 58% 30.14 in 10.0 mi SSE 6.9 mph - N/A   Clear
5:38 PM 48.2 °F - 35.6 °F 62% 30.15 in 10.0 mi South 5.8 mph - N/A   Clear
5:57 PM 46.4 °F 44.3 °F 35.6 °F 66% 30.15 in 10.0 mi South 4.6 mph - N/A   Clear
6:18 PM 46.4 °F 43.5 °F 35.6 °F 66% 30.15 in 10.0 mi South 5.8 mph - N/A   Scattered Clouds
6:38 PM 46.4 °F 44.3 °F 33.8 °F 62% 30.15 in 10.0 mi South 4.6 mph - N/A   Scattered Clouds
6:57 PM 44.6 °F 42.2 °F 33.8 °F 66% 30.15 in 10.0 mi South 4.6 mph - N/A   Scattered Clouds
7:18 PM 46.4 °F 42.9 °F 35.6 °F 66% 30.15 in 10.0 mi SSE 6.9 mph - N/A   Mostly Cloudy
7:38 PM 46.4 °F 42.9 °F 35.6 °F 66% 30.15 in 10.0 mi SSE 6.9 mph - N/A   Mostly Cloudy
7:57 PM 44.6 °F 40.2 °F 35.6 °F 71% 30.15 in 10.0 mi SSE 8.1 mph - N/A   Scattered Clouds
8:18 PM 46.4 °F 42.9 °F 35.6 °F 66% 30.14 in 10.0 mi SSE 6.9 mph - N/A   Scattered Clouds
8:38 PM 46.4 °F 42.9 °F 35.6 °F 66% 30.14 in 10.0 mi SSE 6.9 mph - N/A   Mostly Cloudy
8:57 PM 46.4 °F 42.9 °F 35.6 °F 66% 30.13 in 10.0 mi South 6.9 mph - N/A   Scattered Clouds
9:18 PM 44.6 °F 42.2 °F 33.8 °F 66% 30.14 in 10.0 mi South 4.6 mph - N/A   Scattered Clouds
9:37 PM 46.4 °F 43.5 °F 33.8 °F 62% 30.14 in 10.0 mi South 5.8 mph - N/A   Scattered Clouds
9:57 PM 46.4 °F 43.5 °F 35.6 °F 66% 30.15 in 10.0 mi South 5.8 mph - N/A   Overcast
10:18 PM 48.2 °F - 35.6 °F 62% 30.14 in 10.0 mi South 5.8 mph - N/A Thunderstorm Overcast
10:37 PM 48.2 °F - 35.6 °F 62% 30.14 in 10.0 mi South 5.8 mph - N/A   Overcast
10:57 PM 48.2 °F - 35.6 °F 62% 30.15 in 10.0 mi Calm Calm - N/A Rain , Thunderstorm Light Thunderstorms and Rain
11:18 PM 48.2 °F - 37.4 °F 66% 30.15 in 10.0 mi ESE 4.6 mph - N/A Rain , Thunderstorm Light Thunderstorms and Rain
11:37 PM 48.2 °F - 35.6 °F 62% 30.14 in 10.0 mi SE 5.8 mph - N/A Thunderstorm Thunderstorm
11:58 PM 46.4 °F 45.2 °F 39.2 °F 76% 30.16 in 10.0 mi ENE 3.5 mph - N/A Thunderstorm Overcast